sat.trackr.live / text

‹ back to catalog

STARLINK-11476 [DTC]

NORAD 62228 · 2024-231L

PAYLOAD ACTIVE UNKNOWN

§ Identity

Operator
Country
US
Launch date
2024-12-05
Launch site
AFWTR
Launch vehicle
Mass (kg)
RCS (m²)

Purposes: comms

External: N2YO · Heavens-Above · Gunter

§ Orbital elements

Epoch: 2026-09-21T07:56:17.113632Z

Period
91.73 min
Inclination
53.1569°
Eccentricity
0.0001205
Mean motion
15.69742193 rev/d
Perigee alt
358.8 km
Apogee alt
360.4 km
Semi-major
6,737.8 km
B*
1.1459e-3
RAAN
216.4918°
Arg perigee
122.9251°
Mean anomaly
237.1883°
Rev number
10,415

§ Raw data

STARLINK-11476 [DTC]1 62228U 24231L   26264.33075363  .00140802  00000+0  11459-2 0  99982 62228  53.1569 216.4918 0001205 122.9251 237.1883 15.69742193104152

JSON: /api/v1/satellites/62228 · /tle

For live sub-satellite position, see the globe view (requires WebGL).

§ Visibility from observer

Set your observer location to see the next 7 days of passes ≥ 10°. The values pass through the URL so the page stays shareable.

No JS? Fill the form by hand. The geolocation button needs JavaScript.